Flag for Australia Weather past 2 weeks in Brisbane, Queensland, Australia

Now
68 °F

Broken clouds.


Feels Like: 68 °F
Forecast: 56 / 71 °F
Wind: 12 mph from East

Location: Brisbane Airport M. O

Current Time: Sep 20, 2014 at 4:48:43 PM

Latest Report: Sep 20, 2014 at 4:00 PM


Visibility: N/A

Pressure: 30.09 "Hg

Humidity: 56%

Dew point: 52 °F

Location of BrisbaneLocation

Historic Weather in Brisbane — Graph

°F

Brisbane temperature yesterday

Maximum temperature yesterday: 73 °F (at 10:30 AM)
Minimum temperature yesterday: 52 °F (at 3:30 AM)
Average temperature yesterday: 64 °F

Past Weeks' High & Low Weather Summary

 TemperatureHumidityPressure
High84 °F (Sep 17, 2:00 PM)100% (Sep 9, 1:30 AM)30.33 "Hg (Sep 9, 1:30 AM)
Low50 °F (Sep 6, 5:00 AM)13% (Sep 18, 1:30 PM)29.83 "Hg (Sep 10, 3:00 PM)
Average65 °F70%30.09 "Hg
* Reported Sep 5 3:00 PM — Sep 20 3:30 PM, Brisbane, Weather by CustomWeather, © 2014

Note: Actual official high and low records may vary slightly from our data, if they occured in-between our weather recording intervals... More about our weather records

Advertising

Brisbane weather history for previous 24 hours

 ConditionsComfort  
Time TempWeatherWind HumidityBarometerVisibility
3:30 PM
Sep 20
68 °FScattered clouds.10 mph60%30.09 "HgN/A
3:00 PM70 °FSprinkles. Scattered clouds.12 mph57%30.07 "HgN/A
2:00 PM70 °FScattered showers. Partly sunny.14 mph57%30.09 "HgN/A
1:30 PM70 °FScattered showers. Partly sunny.14 mph57%30.09 "HgN/A
1:00 PM68 °FScattered showers. Broken clouds.14 mph64%30.09 "HgN/A
12:30 PM68 °FSprinkles. Broken clouds.13 mph64%30.12 "HgN/A
12:00 PM68 °FBroken clouds.13 mph64%30.12 "HgN/A
11:00 AM70 °FScattered clouds.14 mph64%30.12 "HgN/A
10:00 AM70 °FScattered clouds.9 mph64%30.15 "HgN/A
9:30 AM70 °FBroken clouds.10 mph60%30.15 "HgN/A
9:00 AM70 °FScattered clouds.10 mph57%30.15 "HgN/A
8:30 AM70 °FPartly sunny.7 mph57%30.15 "HgN/A
8:00 AM68 °FBroken clouds.8 mph64%30.15 "HgN/A
7:00 AM61 °FSunny.8 mph83%30.12 "Hg10 mi
6:30 AM61 °FSunny.7 mph83%30.12 "Hg10 mi
6:00 AM59 °FSunny.8 mph82%30.09 "Hg10 mi
5:00 AM57 °FSunny.8 mph88%30.07 "Hg10 mi
4:30 AM55 °FPassing clouds.6 mph88%30.07 "HgN/A
4:00 AM55 °FPassing clouds.5 mph94%30.07 "HgN/A
3:00 AM57 °FPassing clouds.6 mph88%30.07 "HgN/A
2:30 AM59 °FPassing clouds.6 mph82%30.07 "HgN/A
2:00 AM59 °FPassing clouds.6 mph82%30.07 "HgN/A
1:30 AM61 °FPassing clouds.5 mph77%30.07 "HgN/A
1:00 AM61 °FPassing clouds.2 mph83%30.07 "HgN/A
12:30 AM61 °FPassing clouds.6 mph83%30.07 "HgN/A
12:00 AM63 °FPassing clouds.6 mph77%30.09 "HgN/A
11:30 PM
Sep 19
63 °FPassing clouds.3 mph77%30.09 "HgN/A
11:00 PM64 °FPassing clouds.7 mph78%30.09 "HgN/A
10:30 PM64 °FPassing clouds.10 mph78%30.09 "HgN/A
10:00 PM66 °FPassing clouds.10 mph73%30.09 "HgN/A
9:30 PM66 °FPassing clouds.10 mph73%30.09 "HgN/A
9:00 PM66 °FPassing clouds.14 mph68%30.09 "HgN/A
8:30 PM66 °FPassing clouds.13 mph68%30.09 "HgN/A
8:00 PM66 °FPassing clouds.13 mph68%30.09 "HgN/A
7:30 PM66 °FClear.14 mph68%30.07 "Hg10 mi
7:00 PM66 °FClear.14 mph68%30.07 "Hg10 mi
6:30 PM68 °FPassing clouds.14 mph64%30.07 "HgN/A
6:00 PM66 °FClear.14 mph68%30.04 "Hg10 mi
5:30 PM68 °FClear.13 mph60%30.04 "Hg10 mi
5:00 PM70 °FClear.15 mph57%30.01 "Hg10 mi
4:30 PM70 °FPassing clouds.15 mph57%30.01 "HgN/A
4:00 PM72 °FPassing clouds.15 mph50%30.01 "HgN/A
Weather by CustomWeather, © 2014

See weather overviewHow to use our weather pages